Time,TemperatureF,DewpointF,PressureIn,WindDirection,WindDirectionDegrees,WindSpeedMPH,WindSpeedGustMPH,Humidity,HourlyPrecipIn,Conditions,Clouds,dailyrainin,SoftwareType,DateUTC
2013-03-12 00:00:00,43.3,28.7,30.03,North,0,0.0,0.0,56,0.00,,OVC024,0.00,VWS V13.01,2013-03-12 04:00:00,
2013-03-12 00:02:00,43.3,28.7,30.03,North,0,0.0,0.0,56,0.00,,OVC024,0.00,VWS V13.01,2013-03-12 04:02:00,
2013-03-12 00:07:00,43.3,29.1,30.03,North,0,0.0,0.0,57,0.00,,OVC024,0.00,VWS V13.01,2013-03-12 04:07:00,
2013-03-12 00:12:00,43.3,29.6,30.00,North,0,0.0,0.0,58,0.00,,OVC024,0.00,VWS V13.01,2013-03-12 04:12:00,
2013-03-12 00:17:00,43.3,29.6,30.00,North,0,0.0,0.0,58,0.00,,OVC024,0.00,VWS V13.01,2013-03-12 04:17:00,
2013-03-12 00:22:00,43.3,30.0,30.00,North,0,0.0,0.0,59,0.00,,OVC024,0.00,VWS V13.01,2013-03-12 04:22:00,
2013-03-12 00:27:00,43.2,29.8,30.00,North,0,0.0,0.0,59,0.00,,OVC024,0.00,VWS V13.01,2013-03-12 04:27:00,
2013-03-12 00:32:00,43.0,30.1,30.00,North,0,0.0,0.0,60,0.00,,OVC022,0.00,VWS V13.01,2013-03-12 04:32:00,
2013-03-12 00:37:00,43.0,30.5,30.00,North,0,0.0,0.0,61,0.00,,OVC022,0.00,VWS V13.01,2013-03-12 04:37:00,
2013-03-12 00:42:00,43.0,31.3,30.00,North,0,0.0,0.0,63,0.00,,OVC022,0.00,VWS V13.01,2013-03-12 04:42:00,
2013-03-12 00:47:00,43.0,31.6,30.00,North,0,0.0,0.0,64,0.00,,OVC022,0.00,VWS V13.01,2013-03-12 04:47:00,
2013-03-12 00:52:00,43.0,31.6,30.00,North,0,0.0,0.0,64,0.00,,BKN022,0.00,VWS V13.01,2013-03-12 04:52:00,
2013-03-12 00:57:00,43.0,32.0,30.00,North,0,0.0,0.0,65,0.00,,BKN022,0.00,VWS V13.01,2013-03-12 04:57:00,
2013-03-12 01:02:00,43.0,32.0,30.00,North,0,0.0,0.0,65,0.00,,BKN022,0.00,VWS V13.01,2013-03-12 05:02:00,
2013-03-12 01:07:00,43.2,32.6,30.00,North,0,0.0,0.0,66,0.00,,BKN022,0.00,VWS V13.01,2013-03-12 05:07:00,
2013-03-12 01:12:00,43.3,33.1,30.00,North,0,0.0,0.0,67,0.00,,BKN022,0.00,VWS V13.01,2013-03-12 05:12:00,
2013-03-12 01:17:00,43.3,33.5,30.00,North,0,0.0,0.0,68,0.00,,BKN022,0.00,VWS V13.01,2013-03-12 05:17:00,
2013-03-12 01:22:00,43.5,33.7,30.00,North,0,0.0,0.0,68,0.00,,BKN022,0.00,VWS V13.01,2013-03-12 05:22:00,
2013-03-12 01:27:00,43.5,33.7,30.00,North,0,0.0,0.0,68,0.00,,BKN022,0.00,VWS V13.01,2013-03-12 05:27:00,
2013-03-12 01:32:00,43.3,33.5,30.00,North,0,0.0,0.0,68,0.00,,OVC020,0.00,VWS V13.01,2013-03-12 05:32:00,
2013-03-12 01:37:00,43.3,33.5,30.00,North,0,0.0,0.0,68,0.00,,OVC020,0.00,VWS V13.01,2013-03-12 05:37:00,
2013-03-12 01:42:00,43.5,34.0,30.00,North,0,0.0,0.0,69,0.00,,OVC020,0.00,VWS V13.01,2013-03-12 05:42:00,
2013-03-12 01:48:00,43.3,33.9,30.00,North,0,0.0,0.0,69,0.00,,OVC020,0.00,VWS V13.01,2013-03-12 05:48:00,
2013-03-12 01:53:00,43.3,33.9,30.00,North,0,0.0,0.0,69,0.00,,OVC018,0.00,VWS V13.01,2013-03-12 05:53:00,
2013-03-12 01:58:00,43.2,33.7,30.00,North,0,0.0,0.0,69,0.00,,OVC018,0.00,VWS V13.01,2013-03-12 05:58:00,
2013-03-12 02:03:00,43.2,33.7,30.00,North,0,0.0,0.0,69,0.00,,OVC018,0.00,VWS V13.01,2013-03-12 06:03:00,
2013-03-12 02:08:00,43.2,34.0,30.00,North,0,0.0,0.0,70,0.00,,OVC018,0.00,VWS V13.01,2013-03-12 06:08:00,
2013-03-12 02:13:00,43.3,34.6,30.00,North,0,0.0,0.0,71,0.00,,OVC018,0.00,VWS V13.01,2013-03-12 06:13:00,
2013-03-12 02:18:00,43.3,34.9,30.00,North,0,0.0,0.0,72,0.00,,OVC018,0.00,VWS V13.01,2013-03-12 06:18:00,
2013-03-12 02:23:00,43.3,34.9,29.97,North,0,0.0,0.0,72,0.00,,OVC018,0.00,VWS V13.01,2013-03-12 06:23:00,
2013-03-12 02:28:00,43.2,34.8,29.97,North,0,0.0,0.0,72,0.00,,OVC018,0.00,VWS V13.01,2013-03-12 06:28:00,
2013-03-12 02:33:00,43.3,35.3,29.97,North,0,0.0,0.0,73,0.00,,OVC016,0.00,VWS V13.01,2013-03-12 06:33:00,
2013-03-12 02:38:00,43.2,35.5,29.97,North,0,0.0,0.0,74,0.00,,OVC016,0.00,VWS V13.01,2013-03-12 06:38:00,
2013-03-12 02:43:00,43.2,35.5,29.97,North,0,0.0,0.0,74,0.00,,OVC016,0.00,VWS V13.01,2013-03-12 06:43:00,
2013-03-12 02:48:00,43.3,36.0,29.97,North,0,0.0,0.0,75,0.00,,OVC016,0.00,VWS V13.01,2013-03-12 06:48:00,
2013-03-12 02:53:00,43.3,36.0,29.97,North,0,0.0,0.0,75,0.00,,OVC014,0.00,VWS V13.01,2013-03-12 06:53:00,
2013-03-12 02:58:00,43.3,36.0,29.97,North,0,0.0,0.0,75,0.00,,OVC014,0.00,VWS V13.01,2013-03-12 06:58:00,
2013-03-12 03:03:00,43.2,35.8,29.97,North,0,0.0,0.0,75,0.00,,OVC014,0.00,VWS V13.01,2013-03-12 07:03:00,
2013-03-12 03:08:00,43.0,35.6,29.97,North,0,0.0,0.0,75,0.00,,OVC014,0.00,VWS V13.01,2013-03-12 07:08:00,
2013-03-12 03:13:00,42.8,35.4,29.97,North,0,0.0,0.0,75,0.00,,OVC014,0.00,VWS V13.01,2013-03-12 07:13:00,
2013-03-12 03:18:00,42.8,35.4,29.97,North,0,0.0,0.0,75,0.00,,OVC014,0.00,VWS V13.01,2013-03-12 07:18:00,
2013-03-12 03:23:00,42.8,35.4,29.97,North,0,0.0,0.0,75,0.00,,OVC014,0.00,VWS V13.01,2013-03-12 07:23:00,
2013-03-12 03:28:00,42.8,35.4,29.97,North,0,0.0,0.0,75,0.00,,OVC014,0.00,VWS V13.01,2013-03-12 07:28:00,
2013-03-12 03:33:00,42.8,35.4,29.97,North,0,0.0,0.0,75,0.00,,OVC010,0.00,VWS V13.01,2013-03-12 07:33:00,
2013-03-12 03:38:00,43.0,35.6,29.97,North,0,0.0,0.0,75,0.00,,OVC010,0.00,VWS V13.01,2013-03-12 07:38:00,
2013-03-12 03:43:00,42.8,35.4,29.97,North,0,0.0,0.0,75,0.00,,OVC010,0.00,VWS V13.01,2013-03-12 07:43:00,
2013-03-12 03:48:00,42.4,35.1,29.97,North,0,0.0,0.0,75,0.00,,OVC010,0.00,VWS V13.01,2013-03-12 07:48:00,
2013-03-12 03:53:00,42.4,35.1,29.97,North,0,0.0,0.0,75,0.00,,OVC010,0.00,VWS V13.01,2013-03-12 07:53:00,
2013-03-12 03:58:00,42.4,35.1,29.97,North,0,0.0,0.0,75,0.00,,OVC010,0.00,VWS V13.01,2013-03-12 07:58:00,
2013-03-12 04:03:00,42.4,35.1,29.97,North,0,0.0,0.0,75,0.00,,OVC010,0.00,VWS V13.01,2013-03-12 08:03:00,
2013-03-12 04:08:00,42.6,35.6,29.94,North,0,0.0,0.0,76,0.00,,OVC010,0.00,VWS V13.01,2013-03-12 08:08:00,
2013-03-12 04:13:00,42.8,35.4,29.94,North,0,0.0,0.0,75,0.00,,OVC010,0.00,VWS V13.01,2013-03-12 08:13:00,
2013-03-12 04:18:00,42.8,35.4,29.94,North,0,0.0,0.0,75,0.00,,OVC010,0.00,VWS V13.01,2013-03-12 08:18:00,
2013-03-12 04:23:00,43.0,35.6,29.94,North,0,0.0,0.0,75,0.00,,OVC010,0.00,VWS V13.01,2013-03-12 08:23:00,
2013-03-12 04:28:00,43.0,35.6,29.94,North,0,0.0,0.0,75,0.00,,OVC010,0.00,VWS V13.01,2013-03-12 08:28:00,
2013-03-12 04:33:00,42.8,35.4,29.94,North,0,0.0,0.0,75,0.00,,OVC010,0.00,VWS V13.01,2013-03-12 08:33:00,
2013-03-12 04:38:00,42.8,35.4,29.94,North,0,0.0,0.0,75,0.00,,OVC010,0.00,VWS V13.01,2013-03-12 08:38:00,
2013-03-12 04:43:00,43.0,36.0,29.94,North,0,0.0,0.0,76,0.00,,OVC010,0.00,VWS V13.01,2013-03-12 08:43:00,
2013-03-12 04:48:00,43.2,36.1,29.94,North,0,0.0,0.0,76,0.00,,OVC010,0.00,VWS V13.01,2013-03-12 08:48:00,
2013-03-12 04:53:00,43.2,36.1,29.94,North,0,0.0,0.0,76,0.00,,OVC012,0.00,VWS V13.01,2013-03-12 08:53:00,
2013-03-12 04:58:00,43.3,36.3,29.94,North,0,0.0,0.0,76,0.00,,OVC012,0.00,VWS V13.01,2013-03-12 08:58:00,
2013-03-12 05:03:00,43.3,36.3,29.94,North,0,0.0,0.0,76,0.00,,OVC012,0.00,VWS V13.01,2013-03-12 09:03:00,
2013-03-12 05:08:00,43.5,36.5,29.94,North,0,0.0,0.0,76,0.00,,OVC012,0.00,VWS V13.01,2013-03-12 09:08:00,
2013-03-12 05:13:00,43.5,36.5,29.94,North,0,0.0,0.0,76,0.00,,OVC012,0.00,VWS V13.01,2013-03-12 09:13:00,
2013-03-12 05:18:00,43.7,37.0,29.94,North,0,0.0,0.0,77,0.00,,OVC012,0.00,VWS V13.01,2013-03-12 09:18:00,
2013-03-12 05:23:00,43.7,37.0,29.94,North,0,0.0,0.0,77,0.00,,OVC012,0.00,VWS V13.01,2013-03-12 09:23:00,
2013-03-12 05:28:00,43.7,37.0,29.94,North,0,0.0,0.0,77,0.00,,OVC012,0.00,VWS V13.01,2013-03-12 09:28:00,
2013-03-12 05:33:00,43.7,37.0,29.94,North,0,0.0,0.0,77,0.00,,OVC014,0.00,VWS V13.01,2013-03-12 09:33:00,
2013-03-12 05:38:00,43.7,37.3,29.94,North,0,0.0,0.0,78,0.00,,OVC014,0.00,VWS V13.01,2013-03-12 09:38:00,
2013-03-12 05:44:00,43.9,37.5,29.94,North,0,0.0,0.0,78,0.00,,OVC014,0.00,VWS V13.01,2013-03-12 09:44:00,
2013-03-12 05:49:00,43.9,37.5,29.94,North,0,0.0,0.0,78,0.00,,OVC014,0.00,VWS V13.01,2013-03-12 09:49:00,
2013-03-12 05:54:00,43.7,37.3,29.94,North,0,0.0,0.0,78,0.00,,OVC014,0.00,VWS V13.01,2013-03-12 09:54:00,
2013-03-12 05:59:00,43.7,37.3,29.94,North,0,0.0,0.0,78,0.00,,OVC014,0.00,VWS V13.01,2013-03-12 09:59:00,
2013-03-12 06:04:00,43.9,37.5,29.94,North,0,0.0,0.0,78,0.00,,OVC014,0.00,VWS V13.01,2013-03-12 10:04:00,
2013-03-12 06:09:00,44.1,38.0,29.94,North,0,0.0,0.0,79,0.00,,OVC014,0.00,VWS V13.01,2013-03-12 10:09:00,
2013-03-12 06:14:00,44.1,38.0,29.94,North,0,0.0,0.0,79,0.00,,OVC014,0.00,VWS V13.01,2013-03-12 10:14:00,
2013-03-12 06:19:00,44.1,38.0,29.94,North,0,0.0,0.0,79,0.00,,OVC014,0.00,VWS V13.01,2013-03-12 10:19:00,
2013-03-12 06:24:00,44.1,38.3,29.91,North,0,0.0,0.0,80,0.00,,OVC014,0.00,VWS V13.01,2013-03-12 10:24:00,
2013-03-12 06:29:00,44.2,38.5,29.91,North,0,0.0,0.0,80,0.00,,OVC014,0.00,VWS V13.01,2013-03-12 10:29:00,
2013-03-12 06:34:00,44.2,38.5,29.91,North,0,0.0,0.0,80,0.00,,OVC014,0.00,VWS V13.01,2013-03-12 10:34:00,
2013-03-12 06:39:00,44.4,39.0,29.91,North,0,0.0,0.0,81,0.00,,OVC014,0.00,VWS V13.01,2013-03-12 10:39:00,
2013-03-12 06:44:00,44.6,39.1,29.91,North,0,0.0,0.0,81,0.00,,OVC014,0.00,VWS V13.01,2013-03-12 10:44:00,
2013-03-12 06:49:00,44.8,39.6,29.91,North,0,0.0,0.0,82,0.00,,OVC014,0.00,VWS V13.01,2013-03-12 10:49:00,
2013-03-12 06:54:00,44.6,39.5,29.94,North,0,0.0,0.0,82,0.00,,OVC023,0.00,VWS V13.01,2013-03-12 10:54:00,
2013-03-12 06:59:00,44.8,39.6,29.94,North,0,0.0,0.0,82,0.00,,OVC023,0.00,VWS V13.01,2013-03-12 10:59:00,
2013-03-12 07:04:00,44.8,39.9,29.94,North,0,0.0,0.0,83,0.00,,OVC023,0.00,VWS V13.01,2013-03-12 11:04:00,
2013-03-12 07:09:00,44.8,39.9,29.91,North,0,0.0,0.0,83,0.00,,OVC023,0.00,VWS V13.01,2013-03-12 11:09:00,
2013-03-12 07:14:00,44.8,39.9,29.91,North,0,0.0,0.0,83,0.00,,OVC023,0.00,VWS V13.01,2013-03-12 11:14:00,
2013-03-12 07:19:00,44.6,39.8,29.91,North,0,0.0,0.0,83,0.00,,OVC023,0.00,VWS V13.01,2013-03-12 11:19:00,
2013-03-12 07:24:00,44.6,39.8,29.91,North,0,0.0,0.0,83,0.00,,OVC023,0.00,VWS V13.01,2013-03-12 11:24:00,
2013-03-12 07:29:00,44.6,39.8,29.91,North,0,0.0,0.0,83,0.00,,OVC023,0.00,VWS V13.01,2013-03-12 11:29:00,
2013-03-12 07:34:00,44.8,39.9,29.91,North,0,0.0,0.0,83,0.00,,OVC034,0.00,VWS V13.01,2013-03-12 11:34:00,
2013-03-12 07:39:00,44.8,39.9,29.91,North,0,0.0,0.0,83,0.00,,OVC034,0.00,VWS V13.01,2013-03-12 11:39:00,
2013-03-12 07:44:00,44.8,39.9,29.91,North,0,0.0,0.0,83,0.00,,OVC034,0.00,VWS V13.01,2013-03-12 11:44:00,
2013-03-12 07:49:00,44.8,39.9,29.91,North,0,0.0,0.0,83,0.00,,OVC034,0.00,VWS V13.01,2013-03-12 11:49:00,
2013-03-12 07:54:00,44.8,39.9,29.91,North,0,0.0,0.0,83,0.00,,BKN075,0.00,VWS V13.01,2013-03-12 11:54:00,
2013-03-12 07:59:00,45.0,40.1,29.91,North,0,0.0,0.0,83,0.00,,BKN075,0.00,VWS V13.01,2013-03-12 11:59:00,
2013-03-12 08:04:00,45.0,40.1,29.91,North,0,0.0,0.0,83,0.00,,BKN075,0.00,VWS V13.01,2013-03-12 12:04:00,
2013-03-12 08:09:00,45.0,40.1,29.91,North,0,0.0,0.0,83,0.00,,BKN075,0.00,VWS V13.01,2013-03-12 12:09:00,
2013-03-12 08:14:00,45.1,40.6,29.91,North,0,0.0,0.0,84,0.00,,BKN075,0.00,VWS V13.01,2013-03-12 12:14:00,
2013-03-12 08:19:00,45.3,40.8,29.91,North,0,0.0,0.0,84,0.00,,BKN075,0.00,VWS V13.01,2013-03-12 12:19:00,
2013-03-12 08:24:00,45.3,40.8,29.91,North,0,0.0,0.0,84,0.00,,BKN075,0.00,VWS V13.01,2013-03-12 12:24:00,
2013-03-12 08:29:00,45.3,40.8,29.91,North,0,0.0,0.0,84,0.00,,BKN075,0.00,VWS V13.01,2013-03-12 12:29:00,
2013-03-12 08:34:00,45.5,41.0,29.91,North,0,0.0,0.0,84,0.00,,OVC033,0.00,VWS V13.01,2013-03-12 12:34:00,
2013-03-12 08:39:00,45.5,41.0,29.91,North,0,0.0,0.0,84,0.00,,OVC033,0.00,VWS V13.01,2013-03-12 12:39:00,
2013-03-12 08:44:00,45.5,41.0,29.91,North,0,0.0,0.0,84,0.00,,OVC033,0.00,VWS V13.01,2013-03-12 12:44:00,
2013-03-12 08:49:00,45.5,41.0,29.91,North,0,0.0,0.0,84,0.00,,OVC033,0.00,VWS V13.01,2013-03-12 12:49:00,
2013-03-12 08:54:00,45.7,41.1,29.91,North,0,0.0,0.0,84,0.00,,OVC031,0.00,VWS V13.01,2013-03-12 12:54:00,
2013-03-12 08:59:00,45.9,41.3,29.91,North,0,0.0,0.0,84,0.00,,OVC031,0.00,VWS V13.01,2013-03-12 12:59:00,
2013-03-12 09:04:00,46.0,41.5,29.91,North,0,0.0,0.0,84,0.00,,OVC031,0.00,VWS V13.01,2013-03-12 13:04:00,
2013-03-12 09:09:00,46.2,41.7,29.91,North,0,0.0,0.0,84,0.00,,OVC031,0.00,VWS V13.01,2013-03-12 13:09:00,
2013-03-12 09:14:00,46.2,41.7,29.91,North,0,0.0,0.0,84,0.00,,OVC031,0.00,VWS V13.01,2013-03-12 13:14:00,
2013-03-12 09:19:00,46.4,41.8,29.91,North,0,0.0,0.0,84,0.00,,OVC031,0.00,VWS V13.01,2013-03-12 13:19:00,
2013-03-12 09:24:00,46.6,42.0,29.91,North,0,0.0,0.0,84,0.00,,OVC031,0.00,VWS V13.01,2013-03-12 13:24:00,
2013-03-12 09:29:00,46.6,42.0,29.91,North,0,0.0,0.0,84,0.00,,OVC031,0.00,VWS V13.01,2013-03-12 13:29:00,
2013-03-12 09:34:00,46.8,42.2,29.91,North,0,0.0,0.0,84,0.00,,OVC033,0.00,VWS V13.01,2013-03-12 13:34:00,
2013-03-12 09:39:00,46.8,42.2,29.91,North,0,0.0,0.0,84,0.00,,OVC033,0.00,VWS V13.01,2013-03-12 13:39:00,
2013-03-12 09:44:00,46.8,42.2,29.91,North,0,0.0,0.0,84,0.00,,OVC033,0.00,VWS V13.01,2013-03-12 13:44:00,
2013-03-12 09:49:00,46.8,42.2,29.91,North,0,0.0,0.0,84,0.00,,OVC033,0.00,VWS V13.01,2013-03-12 13:49:00,
2013-03-12 09:54:00,46.8,42.2,29.91,North,0,0.0,0.0,84,0.00,,OVC034,0.00,VWS V13.01,2013-03-12 13:54:00,
2013-03-12 09:59:00,46.9,42.4,29.91,North,0,0.0,0.0,84,0.00,,OVC034,0.00,VWS V13.01,2013-03-12 13:59:00,
2013-03-12 10:04:00,46.9,42.4,29.91,North,0,0.0,0.0,84,0.00,,OVC034,0.00,VWS V13.01,2013-03-12 14:04:00,
2013-03-12 10:09:00,47.1,42.5,29.88,North,0,0.0,0.0,84,0.00,,OVC034,0.00,VWS V13.01,2013-03-12 14:09:00,
2013-03-12 10:14:00,47.1,42.5,29.88,North,0,0.0,0.0,84,0.00,,OVC034,0.00,VWS V13.01,2013-03-12 14:14:00,
2013-03-12 10:19:00,47.1,42.5,29.88,North,0,0.0,0.0,84,0.00,,OVC034,0.00,VWS V13.01,2013-03-12 14:19:00,
2013-03-12 10:24:00,47.3,42.4,29.88,North,0,0.0,0.0,83,0.00,,OVC034,0.00,VWS V13.01,2013-03-12 14:24:00,
2013-03-12 10:29:00,47.3,42.4,29.88,North,0,0.0,0.0,83,0.00,,OVC034,0.00,VWS V13.01,2013-03-12 14:29:00,
2013-03-12 10:34:00,47.3,42.4,29.88,North,0,0.0,0.0,83,0.00,,OVC031,0.00,VWS V13.01,2013-03-12 14:34:00,
2013-03-12 10:39:00,47.5,42.6,29.88,North,0,0.0,0.0,83,0.00,,OVC031,0.00,VWS V13.01,2013-03-12 14:39:00,
2013-03-12 10:44:00,47.5,42.6,29.88,North,0,0.0,0.0,83,0.04,,OVC031,0.04,VWS V13.01,2013-03-12 14:44:00,
2013-03-12 10:49:00,47.7,42.8,29.88,North,0,0.0,0.0,83,0.04,,OVC031,0.04,VWS V13.01,2013-03-12 14:49:00,
2013-03-12 10:54:00,47.7,42.8,29.88,North,0,0.0,0.0,83,0.04,,OVC031,0.04,VWS V13.01,2013-03-12 14:54:00,
2013-03-12 10:59:00,47.7,42.8,29.88,North,0,0.0,0.0,83,0.04,,OVC031,0.04,VWS V13.01,2013-03-12 14:59:00,
2013-03-12 11:04:00,47.8,42.9,29.88,North,0,0.0,0.0,83,0.04,,OVC031,0.04,VWS V13.01,2013-03-12 15:04:00,
2013-03-12 11:09:00,47.8,42.9,29.88,North,0,0.0,0.0,83,0.04,,OVC031,0.04,VWS V13.01,2013-03-12 15:09:00,
2013-03-12 11:14:00,47.8,42.9,29.88,North,0,0.0,0.0,83,0.04,,OVC031,0.04,VWS V13.01,2013-03-12 15:14:00,
2013-03-12 11:20:00,48.0,43.1,29.88,North,0,0.0,0.0,83,0.04,,OVC031,0.04,VWS V13.01,2013-03-12 15:20:00,
2013-03-12 11:25:00,48.0,43.4,29.88,North,0,0.0,0.0,84,0.04,,OVC031,0.04,VWS V13.01,2013-03-12 15:25:00,
2013-03-12 11:30:00,48.2,43.3,29.88,North,0,0.0,0.0,83,0.04,,OVC031,0.04,VWS V13.01,2013-03-12 15:30:00,
2013-03-12 11:35:00,48.4,43.5,29.88,North,0,0.0,0.0,83,0.04,,OVC024,0.04,VWS V13.01,2013-03-12 15:35:00,
2013-03-12 11:40:00,48.4,43.5,29.85,North,0,0.0,0.0,83,0.04,,OVC024,0.04,VWS V13.01,2013-03-12 15:40:00,
2013-03-12 11:45:00,48.4,43.5,29.85,North,0,0.0,0.0,83,0.04,,OVC024,0.04,VWS V13.01,2013-03-12 15:45:00,
2013-03-12 11:50:00,48.6,43.6,29.85,North,0,0.0,0.0,83,0.04,,OVC024,0.04,VWS V13.01,2013-03-12 15:50:00,
2013-03-12 11:55:00,48.7,43.8,29.85,North,0,0.0,0.0,83,0.00,,OVC024,0.04,VWS V13.01,2013-03-12 15:55:00,
2013-03-12 12:00:00,48.7,43.8,29.85,North,0,0.0,0.0,83,0.00,,OVC024,0.04,VWS V13.01,2013-03-12 16:00:00,
2013-03-12 12:05:00,48.7,43.8,29.85,North,0,0.0,0.0,83,0.00,,OVC024,0.04,VWS V13.01,2013-03-12 16:05:00,
2013-03-12 12:10:00,48.9,44.0,29.85,North,0,0.0,0.0,83,0.00,,OVC024,0.04,VWS V13.01,2013-03-12 16:10:00,
2013-03-12 12:15:00,48.9,44.0,29.85,North,0,0.0,0.0,83,0.00,,OVC024,0.04,VWS V13.01,2013-03-12 16:15:00,
2013-03-12 12:20:00,48.9,44.0,29.85,North,0,0.0,0.0,83,0.04,,OVC024,0.08,VWS V13.01,2013-03-12 16:20:00,
2013-03-12 12:25:00,48.9,44.0,29.85,North,0,0.0,0.0,83,0.04,,OVC024,0.08,VWS V13.01,2013-03-12 16:25:00,
2013-03-12 12:30:00,49.1,44.2,29.85,North,0,0.0,0.0,83,0.04,,OVC024,0.08,VWS V13.01,2013-03-12 16:30:00,
2013-03-12 12:35:00,49.1,44.2,29.85,North,0,0.0,0.0,83,0.04,,OVC020,0.08,VWS V13.01,2013-03-12 16:35:00,
2013-03-12 12:40:00,49.3,44.3,29.85,North,0,0.0,0.0,83,0.04,,OVC020,0.08,VWS V13.01,2013-03-12 16:40:00,
2013-03-12 12:45:00,49.3,44.3,29.85,North,0,0.0,0.0,83,0.04,,OVC020,0.08,VWS V13.01,2013-03-12 16:45:00,
2013-03-12 12:50:00,49.3,44.3,29.85,North,0,0.0,0.0,83,0.04,,OVC020,0.08,VWS V13.01,2013-03-12 16:50:00,
2013-03-12 12:55:00,49.3,44.3,29.82,North,0,0.0,0.0,83,0.04,,OVC030,0.08,VWS V13.01,2013-03-12 16:55:00,
2013-03-12 13:00:00,49.5,44.5,29.82,North,0,0.0,0.0,83,0.04,,OVC030,0.08,VWS V13.01,2013-03-12 17:00:00,
2013-03-12 13:05:00,49.5,44.5,29.82,North,0,0.0,0.0,83,0.04,,OVC030,0.08,VWS V13.01,2013-03-12 17:05:00,
2013-03-12 13:10:00,49.5,44.8,29.82,North,0,0.0,0.0,84,0.04,,OVC030,0.08,VWS V13.01,2013-03-12 17:10:00,
2013-03-12 13:15:00,49.5,44.8,29.82,North,0,0.0,0.0,84,0.04,,OVC030,0.08,VWS V13.01,2013-03-12 17:15:00,
2013-03-12 13:20:00,49.5,44.8,29.82,North,0,0.0,0.0,84,0.04,,OVC030,0.08,VWS V13.01,2013-03-12 17:20:00,
2013-03-12 13:25:00,49.5,44.8,29.82,North,0,0.0,0.0,84,0.00,,OVC030,0.08,VWS V13.01,2013-03-12 17:25:00,
2013-03-12 13:30:00,49.6,45.0,29.82,North,0,0.0,0.0,84,0.00,,OVC030,0.08,VWS V13.01,2013-03-12 17:30:00,
2013-03-12 13:35:00,49.5,44.8,29.82,North,0,0.0,0.0,84,0.00,,OVC023,0.08,VWS V13.01,2013-03-12 17:35:00,
2013-03-12 13:40:00,49.6,45.0,29.82,North,0,0.0,0.0,84,0.00,,OVC023,0.08,VWS V13.01,2013-03-12 17:40:00,
2013-03-12 13:45:00,49.6,45.0,29.82,North,0,0.0,0.0,84,0.00,,OVC023,0.08,VWS V13.01,2013-03-12 17:45:00,
2013-03-12 13:50:00,49.8,45.2,29.82,North,0,0.0,0.0,84,0.00,,OVC023,0.08,VWS V13.01,2013-03-12 17:50:00,
2013-03-12 13:55:00,49.8,45.5,29.79,North,0,0.0,0.0,85,0.04,,OVC023,0.12,VWS V13.01,2013-03-12 17:55:00,
2013-03-12 14:00:00,49.8,45.5,29.79,North,0,0.0,0.0,85,0.04,,OVC023,0.12,VWS V13.01,2013-03-12 18:00:00,
2013-03-12 14:05:00,49.8,45.5,29.79,North,0,0.0,0.0,85,0.04,,OVC023,0.12,VWS V13.01,2013-03-12 18:05:00,
2013-03-12 14:10:00,49.8,45.5,29.79,North,0,0.0,0.0,85,0.04,,OVC023,0.12,VWS V13.01,2013-03-12 18:10:00,
2013-03-12 14:15:00,49.8,45.5,29.79,North,0,0.0,0.0,85,0.08,,OVC023,0.16,VWS V13.01,2013-03-12 18:15:00,
2013-03-12 14:20:00,49.8,45.5,29.79,North,0,0.0,0.0,85,0.08,,OVC023,0.16,VWS V13.01,2013-03-12 18:20:00,
2013-03-12 14:25:00,50.0,45.4,29.79,North,0,0.0,0.0,84,0.08,,OVC023,0.16,VWS V13.01,2013-03-12 18:25:00,
2013-03-12 14:30:00,50.0,45.4,29.79,North,0,0.0,0.0,84,0.08,,OVC023,0.16,VWS V13.01,2013-03-12 18:30:00,
2013-03-12 14:35:00,49.8,45.5,29.79,North,0,0.0,0.0,85,0.08,,OVC025,0.16,VWS V13.01,2013-03-12 18:35:00,
2013-03-12 14:40:00,49.8,45.5,29.76,North,0,0.0,0.0,85,0.08,,OVC025,0.16,VWS V13.01,2013-03-12 18:40:00,
2013-03-12 14:45:00,49.8,45.5,29.76,North,0,0.0,0.0,85,0.12,,OVC025,0.20,VWS V13.01,2013-03-12 18:45:00,
2013-03-12 14:50:00,49.8,45.5,29.76,North,0,0.0,0.0,85,0.12,,OVC025,0.20,VWS V13.01,2013-03-12 18:50:00,
2013-03-12 14:55:00,49.8,45.5,29.76,North,0,0.0,0.0,85,0.12,,OVC031,0.20,VWS V13.01,2013-03-12 18:55:00,
2013-03-12 15:00:00,50.0,45.7,29.76,North,0,0.0,0.0,85,0.12,,OVC031,0.20,VWS V13.01,2013-03-12 19:00:00,
2013-03-12 15:05:00,50.0,45.7,29.76,North,0,0.0,0.0,85,0.08,,OVC031,0.20,VWS V13.01,2013-03-12 19:05:00,
2013-03-12 15:10:00,50.2,45.8,29.76,North,0,0.0,0.0,85,0.08,,OVC031,0.20,VWS V13.01,2013-03-12 19:10:00,
2013-03-12 15:15:00,50.0,45.7,29.76,North,0,0.0,0.0,85,0.08,,OVC031,0.20,VWS V13.01,2013-03-12 19:15:00,
2013-03-12 15:20:00,50.2,45.8,29.76,North,0,0.0,0.0,85,0.08,,OVC031,0.20,VWS V13.01,2013-03-12 19:20:00,
2013-03-12 15:25:00,50.2,45.8,29.73,North,0,0.0,0.0,85,0.04,,OVC031,0.20,VWS V13.01,2013-03-12 19:25:00,
2013-03-12 15:30:00,50.2,45.8,29.73,North,0,0.0,0.0,85,0.04,,OVC031,0.20,VWS V13.01,2013-03-12 19:30:00,
2013-03-12 15:35:00,50.4,46.0,29.73,North,0,0.0,0.0,85,0.08,,OVC016,0.24,VWS V13.01,2013-03-12 19:35:00,
2013-03-12 15:40:00,50.4,46.0,29.73,North,0,0.0,0.0,85,0.08,,OVC016,0.24,VWS V13.01,2013-03-12 19:40:00,
2013-03-12 15:45:00,50.4,46.3,29.73,North,0,0.0,0.0,86,0.08,,OVC016,0.24,VWS V13.01,2013-03-12 19:45:00,
2013-03-12 15:50:00,50.4,46.3,29.73,North,0,0.0,0.0,86,0.08,,OVC016,0.24,VWS V13.01,2013-03-12 19:50:00,
2013-03-12 15:55:00,50.5,46.5,29.73,North,0,0.0,0.0,86,0.04,,OVC016,0.24,VWS V13.01,2013-03-12 19:55:00,
2013-03-12 16:01:00,50.4,46.3,29.73,North,0,0.0,0.0,86,0.04,,OVC016,0.24,VWS V13.01,2013-03-12 20:01:00,
2013-03-12 16:06:00,50.5,46.5,29.73,North,0,0.0,0.0,86,0.04,,OVC016,0.24,VWS V13.01,2013-03-12 20:06:00,
2013-03-12 16:11:00,50.5,46.5,29.73,North,0,0.0,0.0,86,0.04,,OVC016,0.24,VWS V13.01,2013-03-12 20:11:00,
2013-03-12 16:16:00,50.5,46.5,29.73,North,0,0.0,0.0,86,0.08,,OVC016,0.28,VWS V13.01,2013-03-12 20:16:00,
2013-03-12 16:21:00,50.5,46.5,29.73,North,0,0.0,0.0,86,0.08,,OVC016,0.28,VWS V13.01,2013-03-12 20:21:00,
2013-03-12 16:26:00,50.5,46.5,29.73,North,0,0.0,0.0,86,0.08,,OVC016,0.28,VWS V13.01,2013-03-12 20:26:00,
2013-03-12 16:31:00,50.7,46.7,29.73,North,0,0.0,0.0,86,0.08,,OVC016,0.28,VWS V13.01,2013-03-12 20:31:00,
2013-03-12 16:36:00,50.5,46.5,29.73,North,0,0.0,0.0,86,0.08,,OVC016,0.31,VWS V13.01,2013-03-12 20:36:00,
2013-03-12 16:42:00,50.7,46.7,29.70,North,0,0.0,0.0,86,0.08,,OVC016,0.31,VWS V13.01,2013-03-12 20:42:00,
2013-03-12 16:47:00,50.7,46.7,29.70,North,0,0.0,0.0,86,0.08,,OVC016,0.31,VWS V13.01,2013-03-12 20:47:00,
2013-03-12 16:52:00,50.7,46.7,29.70,North,0,0.0,0.0,86,0.16,,OVC016,0.39,VWS V13.01,2013-03-12 20:52:00,
2013-03-12 16:57:00,50.9,47.2,29.70,North,0,0.0,0.0,87,0.16,,OVC016,0.39,VWS V13.01,2013-03-12 20:57:00,
2013-03-12 17:02:00,50.9,47.2,29.70,North,0,0.0,0.0,87,0.16,,OVC016,0.39,VWS V13.01,2013-03-12 21:02:00,
2013-03-12 17:07:00,50.7,47.0,29.70,North,0,0.0,0.0,87,0.16,,OVC016,0.39,VWS V13.01,2013-03-12 21:07:00,
2013-03-12 17:12:00,50.9,47.2,29.70,North,0,0.0,0.0,87,0.16,,OVC016,0.39,VWS V13.01,2013-03-12 21:12:00,
2013-03-12 17:17:00,50.9,47.2,29.70,North,0,0.0,0.0,87,0.20,,OVC016,0.43,VWS V13.01,2013-03-12 21:17:00,
2013-03-12 17:22:00,50.9,47.2,29.70,North,0,0.0,0.0,87,0.16,,OVC016,0.43,VWS V13.01,2013-03-12 21:22:00,
2013-03-12 17:27:00,50.7,47.0,29.67,North,0,0.0,0.0,87,0.16,,OVC016,0.43,VWS V13.01,2013-03-12 21:27:00,
2013-03-12 17:32:00,50.7,47.0,29.67,North,0,0.0,0.0,87,0.20,,OVC018,0.47,VWS V13.01,2013-03-12 21:32:00,
2013-03-12 17:37:00,50.9,47.2,29.67,North,0,0.0,0.0,87,0.20,,OVC018,0.47,VWS V13.01,2013-03-12 21:37:00,
2013-03-12 17:42:00,50.9,47.2,29.67,North,0,0.0,0.0,87,0.20,,OVC018,0.51,VWS V13.01,2013-03-12 21:42:00,
2013-03-12 17:47:00,50.9,47.2,29.67,North,0,0.0,0.0,87,0.20,,OVC018,0.51,VWS V13.01,2013-03-12 21:47:00,
2013-03-12 17:52:00,50.9,47.2,29.67,North,0,0.0,0.0,87,0.24,,OVC018,0.55,VWS V13.01,2013-03-12 21:52:00,
2013-03-12 17:57:00,51.1,47.3,29.67,North,0,0.0,0.0,87,0.24,,OVC018,0.55,VWS V13.01,2013-03-12 21:57:00,
2013-03-12 18:02:00,51.1,47.3,29.67,North,0,0.0,0.0,87,0.20,,OVC018,0.59,VWS V13.01,2013-03-12 22:02:00,
2013-03-12 18:07:00,50.9,47.2,29.67,North,0,0.0,0.0,87,0.24,,OVC018,0.63,VWS V13.01,2013-03-12 22:07:00,
2013-03-12 18:12:00,51.1,47.3,29.67,North,0,0.0,0.0,87,0.28,,OVC018,0.67,VWS V13.01,2013-03-12 22:12:00,
2013-03-12 18:17:00,50.9,47.2,29.67,North,0,0.0,0.0,87,0.28,,OVC018,0.67,VWS V13.01,2013-03-12 22:17:00,
2013-03-12 18:22:00,50.9,47.2,29.67,North,0,0.0,0.0,87,0.28,,OVC018,0.71,VWS V13.01,2013-03-12 22:22:00,
2013-03-12 18:27:00,50.9,47.2,29.64,North,0,0.0,0.0,87,0.31,,OVC018,0.75,VWS V13.01,2013-03-12 22:27:00,
2013-03-12 18:32:00,51.1,47.3,29.64,North,0,0.0,0.0,87,0.28,,OVC026,0.75,VWS V13.01,2013-03-12 22:32:00,
2013-03-12 18:37:00,50.9,47.2,29.64,North,0,0.0,0.0,87,0.31,,OVC026,0.79,VWS V13.01,2013-03-12 22:37:00,
2013-03-12 18:43:00,51.1,47.3,29.64,North,0,0.0,0.0,87,0.31,,OVC026,0.83,VWS V13.01,2013-03-12 22:43:00,
2013-03-12 18:48:00,51.1,47.3,29.64,North,0,0.0,0.0,87,0.31,,OVC026,0.83,VWS V13.01,2013-03-12 22:48:00,
2013-03-12 18:53:00,51.3,47.8,29.64,North,0,0.0,0.0,88,0.31,,OVC037,0.83,VWS V13.01,2013-03-12 22:53:00,
2013-03-12 18:58:00,51.4,48.0,29.64,North,0,0.0,0.0,88,0.31,,OVC037,0.83,VWS V13.01,2013-03-12 22:58:00,
2013-03-12 19:03:00,51.4,48.0,29.64,North,0,0.0,0.0,88,0.24,,OVC037,0.83,VWS V13.01,2013-03-12 23:03:00,
2013-03-12 19:08:00,51.4,48.0,29.64,North,0,0.0,0.0,88,0.28,,OVC037,0.87,VWS V13.01,2013-03-12 23:08:00,
2013-03-12 19:13:00,51.4,48.0,29.64,North,0,0.0,0.0,88,0.20,,OVC037,0.87,VWS V13.01,2013-03-12 23:13:00,
2013-03-12 19:18:00,51.4,48.0,29.64,North,0,0.0,0.0,88,0.20,,OVC037,0.87,VWS V13.01,2013-03-12 23:18:00,
2013-03-12 19:23:00,51.3,47.8,29.64,North,0,0.0,0.0,88,0.20,,OVC037,0.91,VWS V13.01,2013-03-12 23:23:00,
2013-03-12 19:28:00,51.4,48.0,29.64,North,0,0.0,0.0,88,0.20,,OVC037,0.91,VWS V13.01,2013-03-12 23:28:00,
2013-03-12 19:33:00,51.4,48.0,29.64,North,0,0.0,0.0,88,0.16,,OVC037,0.91,VWS V13.01,2013-03-12 23:33:00,
2013-03-12 19:38:00,51.4,48.0,29.64,North,0,0.0,0.0,88,0.16,,OVC037,0.91,VWS V13.01,2013-03-12 23:38:00,
2013-03-12 19:43:00,51.4,48.0,29.64,North,0,0.0,0.0,88,0.16,,OVC037,0.94,VWS V13.01,2013-03-12 23:43:00,
2013-03-12 19:48:00,51.3,47.8,29.64,North,0,0.0,0.0,88,0.16,,OVC037,0.94,VWS V13.01,2013-03-12 23:48:00,
2013-03-12 19:53:00,51.3,47.8,29.64,North,0,0.0,0.0,88,0.12,,OVC028,0.94,VWS V13.01,2013-03-12 23:53:00,
2013-03-12 19:58:00,51.3,47.8,29.64,North,0,0.0,0.0,88,0.12,,OVC028,0.94,VWS V13.01,2013-03-12 23:58:00,
2013-03-12 20:03:00,51.3,47.8,29.64,North,0,0.0,0.0,88,0.12,,OVC028,0.94,VWS V13.01,2013-03-13 00:03:00,
2013-03-12 20:08:00,51.3,47.8,29.64,North,0,0.0,0.0,88,0.12,,OVC028,0.94,VWS V13.01,2013-03-13 00:08:00,
2013-03-12 20:13:00,51.3,47.8,29.64,North,0,0.0,0.0,88,0.08,,OVC012,0.94,VWS V13.01,2013-03-13 00:13:00,
2013-03-12 20:18:00,51.3,47.8,29.64,North,0,0.0,0.0,88,0.08,,OVC012,0.94,VWS V13.01,2013-03-13 00:18:00,
2013-03-12 20:23:00,51.3,47.8,29.64,North,0,0.0,0.0,88,0.08,,OVC012,0.94,VWS V13.01,2013-03-13 00:23:00,
2013-03-12 20:28:00,51.3,47.8,29.64,North,0,0.0,0.0,88,0.08,,OVC012,0.94,VWS V13.01,2013-03-13 00:28:00,
2013-03-12 20:33:00,51.4,48.0,29.64,North,0,0.0,0.0,88,0.04,,OVC012,0.94,VWS V13.01,2013-03-13 00:33:00,
2013-03-12 20:38:00,51.4,48.0,29.64,North,0,0.0,0.0,88,0.04,,OVC012,0.94,VWS V13.01,2013-03-13 00:38:00,
2013-03-12 20:43:00,51.6,48.2,29.64,North,0,0.0,0.0,88,0.04,,OVC012,0.94,VWS V13.01,2013-03-13 00:43:00,
2013-03-12 20:48:00,51.6,48.2,29.64,North,0,0.0,0.0,88,0.04,,OVC012,0.94,VWS V13.01,2013-03-13 00:48:00,
2013-03-12 20:53:00,51.6,48.5,29.64,North,0,0.0,0.0,89,0.00,,OVC012,0.94,VWS V13.01,2013-03-13 00:53:00,
2013-03-12 20:58:00,51.8,48.4,29.64,North,0,0.0,0.0,88,0.00,,OVC012,0.94,VWS V13.01,2013-03-13 00:58:00,
2013-03-12 21:03:00,51.8,48.4,29.64,North,0,0.0,0.0,88,0.00,,OVC012,0.94,VWS V13.01,2013-03-13 01:03:00,
2013-03-12 21:08:00,51.6,48.5,29.64,North,0,0.0,0.0,89,0.04,,OVC012,0.98,VWS V13.01,2013-03-13 01:08:00,
2013-03-12 21:13:00,50.7,47.3,29.64,North,0,0.0,0.0,88,0.04,,OVC010,0.98,VWS V13.01,2013-03-13 01:13:00,
2013-03-12 21:18:00,49.5,45.8,29.64,North,0,0.0,0.0,87,0.04,,OVC010,0.98,VWS V13.01,2013-03-13 01:18:00,
2013-03-12 21:23:00,48.4,44.4,29.64,North,0,0.0,0.0,86,0.04,,OVC010,0.98,VWS V13.01,2013-03-13 01:23:00,
2013-03-12 21:28:00,47.5,43.5,29.64,North,0,0.0,0.0,86,0.04,,OVC010,0.98,VWS V13.01,2013-03-13 01:28:00,
2013-03-12 21:33:00,46.6,42.6,29.64,North,0,0.0,0.0,86,0.04,,OVC012,0.98,VWS V13.01,2013-03-13 01:33:00,
2013-03-12 21:38:00,45.9,41.9,29.67,North,0,0.0,0.0,86,0.04,,OVC012,0.98,VWS V13.01,2013-03-13 01:38:00,
2013-03-12 21:43:00,45.3,41.4,29.67,North,0,0.0,0.0,86,0.04,,OVC012,0.98,VWS V13.01,2013-03-13 01:43:00,
2013-03-12 21:48:00,44.8,40.9,29.67,North,0,0.0,0.0,86,0.04,,OVC012,0.98,VWS V13.01,2013-03-13 01:48:00,
2013-03-12 21:53:00,44.4,40.5,29.67,North,0,0.0,0.0,86,0.04,,OVC018,0.98,VWS V13.01,2013-03-13 01:53:00,
2013-03-12 21:58:00,44.2,40.3,29.67,North,0,0.0,0.0,86,0.04,,OVC018,0.98,VWS V13.01,2013-03-13 01:58:00,
2013-03-12 22:03:00,44.1,40.2,29.67,North,0,0.0,0.0,86,0.04,,OVC018,0.98,VWS V13.01,2013-03-13 02:03:00,
2013-03-12 22:09:00,44.1,40.2,29.70,North,0,0.0,0.0,86,0.04,,OVC018,0.98,VWS V13.01,2013-03-13 02:09:00,
2013-03-12 22:14:00,43.9,40.0,29.70,North,0,0.0,0.0,86,0.00,,OVC018,0.98,VWS V13.01,2013-03-13 02:14:00,
2013-03-12 22:19:00,43.7,39.8,29.70,North,0,0.0,0.0,86,0.00,,OVC018,0.98,VWS V13.01,2013-03-13 02:19:00,
2013-03-12 22:24:00,43.5,39.6,29.70,North,0,0.0,0.0,86,0.00,,OVC018,0.98,VWS V13.01,2013-03-13 02:24:00,
2013-03-12 22:29:00,43.2,39.3,29.70,North,0,0.0,0.0,86,0.00,,OVC018,0.98,VWS V13.01,2013-03-13 02:29:00,
2013-03-12 22:34:00,43.0,39.1,29.70,North,0,0.0,0.0,86,0.00,,OVC029,0.98,VWS V13.01,2013-03-13 02:34:00,
2013-03-12 22:39:00,43.0,39.1,29.70,North,0,0.0,0.0,86,0.00,,OVC029,0.98,VWS V13.01,2013-03-13 02:39:00,
2013-03-12 22:44:00,42.8,38.9,29.70,North,0,0.0,0.0,86,0.00,,OVC029,0.98,VWS V13.01,2013-03-13 02:44:00,
2013-03-12 22:49:00,42.4,38.6,29.70,North,0,0.0,0.0,86,0.00,,OVC029,0.98,VWS V13.01,2013-03-13 02:49:00,
2013-03-12 22:54:00,42.3,38.4,29.70,North,0,0.0,0.0,86,0.00,,OVC033,0.98,VWS V13.01,2013-03-13 02:54:00,
2013-03-12 22:59:00,41.9,37.7,29.70,North,0,0.0,0.0,85,0.00,,OVC033,0.98,VWS V13.01,2013-03-13 02:59:00,
2013-03-12 23:04:00,41.7,37.5,29.70,North,0,0.0,0.0,85,0.00,,OVC033,0.98,VWS V13.01,2013-03-13 03:04:00,
2013-03-12 23:09:00,41.7,37.5,29.73,North,0,0.0,0.0,85,0.00,,OVC033,0.98,VWS V13.01,2013-03-13 03:09:00,
2013-03-12 23:14:00,41.5,37.1,29.73,North,0,0.0,0.0,84,0.00,,OVC033,0.98,VWS V13.01,2013-03-13 03:14:00,
2013-03-12 23:19:00,41.5,37.1,29.73,North,0,0.0,0.0,84,0.00,,OVC033,0.98,VWS V13.01,2013-03-13 03:19:00,
2013-03-12 23:24:00,41.4,36.3,29.73,North,0,0.0,0.0,82,0.00,,OVC033,0.98,VWS V13.01,2013-03-13 03:24:00,
2013-03-12 23:29:00,41.2,35.8,29.73,North,0,0.0,0.0,81,0.00,,OVC033,0.98,VWS V13.01,2013-03-13 03:29:00,
2013-03-12 23:34:00,40.8,34.5,29.73,North,0,0.0,0.0,78,0.00,,BKN037,0.98,VWS V13.01,2013-03-13 03:34:00,
2013-03-12 23:39:00,40.6,34.0,29.73,North,0,0.0,0.0,77,0.00,,BKN037,0.98,VWS V13.01,2013-03-13 03:39:00,
2013-03-12 23:44:00,40.3,33.3,29.73,North,0,0.0,0.0,76,0.00,,BKN037,0.98,VWS V13.01,2013-03-13 03:44:00,
2013-03-12 23:49:00,39.9,33.0,29.73,North,0,0.0,0.0,76,0.00,,BKN037,0.98,VWS V13.01,2013-03-13 03:49:00,
2013-03-12 23:54:00,39.7,32.5,29.73,North,0,0.0,0.0,75,0.00,,OVC043,0.98,VWS V13.01,2013-03-13 03:54:00,
2013-03-12 23:59:00,39.9,32.3,29.73,North,0,0.0,0.0,74,0.00,,OVC043,0.98,VWS V13.01,2013-03-13 03:59:00,